Time_in_sec,gx,gy,gz
1314272615.85369730,0.00337299,-0.01476162,-0.99988535
1314272615.90140939,0.00344121,-0.01486099,-0.99988365
1314272615.94468069,0.00350036,-0.01474985,-0.99988509
1314272616.00444579,0.00347444,-0.01497936,-0.99988177
1314272616.05324483,0.00361086,-0.01497299,-0.99988138
1314272616.10199165,0.00393089,-0.01513417,-0.99987775
1314272616.15247107,0.00402958,-0.01511639,-0.99987762
1314272616.20116258,0.00404496,-0.01518873,-0.99987646
1314272616.25167775,0.00416257,-0.01513538,-0.99987679
1314272616.30565500,0.00419953,-0.01524086,-0.99987503
1314272616.35258698,0.00417176,-0.01550011,-0.99987116
1314272616.40448022,0.00417009,-0.01544634,-0.99987200
1314272616.45361257,0.00397388,-0.01528068,-0.99987535
1314272616.50182462,0.00406206,-0.01535627,-0.99987383
1314272616.55246973,0.00380139,-0.01529940,-0.99987573
1314272616.60148311,0.00396308,-0.01534065,-0.99987447
1314272616.65357494,0.00419800,-0.01522512,-0.99987528
1314272616.70084977,0.00422078,-0.01520288,-0.99987552
1314272616.75258660,0.00419362,-0.01515305,-0.99987639
1314272616.80452871,0.00445094,-0.01529240,-0.99987316
1314272616.85247445,0.00439136,-0.01520306,-0.99987478
1314272616.90172267,0.00443756,-0.01504560,-0.99987696
1314272616.95244551,0.00415944,-0.01493129,-0.99987987
1314272617.00129104,0.00429832,-0.01479899,-0.99988125
1314272617.05245924,0.00432392,-0.01462488,-0.99988370
1314272617.10564303,0.00450920,-0.01446166,-0.99988526
1314272617.15251637,0.00455625,-0.01446595,-0.99988498
1314272617.20447874,0.00457291,-0.01463305,-0.99988247
1314272617.25271511,0.00433648,-0.01464433,-0.99988336
1314272617.30150461,0.00423179,-0.01480800,-0.99988140
1314272617.35284901,0.00386529,-0.01460158,-0.99988592
1314272617.40447378,0.00380278,-0.01481178,-0.99988307
1314272617.45244718,0.00376596,-0.01483470,-0.99988287
1314272617.50092530,0.00377491,-0.01480570,-0.99988326
1314272617.55244899,0.00398274,-0.01463369,-0.99988499
1314272617.60471702,0.00384573,-0.01486169,-0.99988216
1314272617.65260077,0.00390038,-0.01489229,-0.99988150
1314272617.70156050,0.00393572,-0.01498849,-0.99987992
1314272617.75247955,0.00399978,-0.01490753,-0.99988088
1314272617.80060816,0.00377958,-0.01481789,-0.99988307
1314272617.85364103,0.00387294,-0.01509471,-0.99987857
1314272617.90047646,0.00393947,-0.01514298,-0.99987758
1314272617.94553757,0.00392826,-0.01530540,-0.99987515
1314272618.00156951,0.00379468,-0.01538217,-0.99987449
1314272618.05249381,0.00352929,-0.01513973,-0.99987916
1314272618.10148120,0.00371253,-0.01527785,-0.99987639
1314272618.15250683,0.00378308,-0.01534884,-0.99987504
1314272618.20144510,0.00366117,-0.01520020,-0.99987777
1314272618.25246167,0.00373699,-0.01491439,-0.99988179
1314272618.30131507,0.00375877,-0.01469923,-0.99988490
1314272618.35246110,0.00400003,-0.01470001,-0.99988395
1314272618.40447879,0.00407942,-0.01481268,-0.99988196
1314272618.45250058,0.00407472,-0.01466262,-0.99988420
1314272618.50216150,0.00406838,-0.01455239,-0.99988583
1314272618.55349278,0.00401103,-0.01457362,-0.99988575
1314272618.60561323,0.00386295,-0.01455737,-0.99988657
1314272618.65427089,0.00405292,-0.01439834,-0.99988812
1314272618.70152593,0.00400400,-0.01433024,-0.99988930
1314272618.75248146,0.00394545,-0.01408948,-0.99989295
1314272618.80471015,0.00392373,-0.01386215,-0.99989622
1314272618.85254240,0.00370025,-0.01404523,-0.99989451
1314272618.90214753,0.00383640,-0.01391773,-0.99989578
1314272618.95245218,0.00379033,-0.01402770,-0.99989442
1314272619.00459099,0.00388840,-0.01406631,-0.99989350
1314272619.05401158,0.00382846,-0.01408730,-0.99989344
1314272619.10149336,0.00349703,-0.01418773,-0.99989323
1314272619.15250373,0.00361060,-0.01415549,-0.99989329
1314272619.20447803,0.00367167,-0.01410249,-0.99989381
1314272619.25249743,0.00355729,-0.01407215,-0.99989465
1314272619.30201459,0.00349614,-0.01382656,-0.99989830
1314272619.35247540,0.00361680,-0.01376939,-0.99989866
1314272619.40448952,0.00346233,-0.01372737,-0.99989978
1314272619.45305753,0.00344913,-0.01368399,-0.99990042
1314272619.50144887,0.00338965,-0.01391268,-0.99989747
1314272619.55351257,0.00318930,-0.01412438,-0.99989516
1314272619.60461903,0.00317950,-0.01421251,-0.99989394
1314272619.65249610,0.00312346,-0.01438600,-0.99989164
1314272619.70149374,0.00315980,-0.01451394,-0.99988967
1314272619.75352693,0.00325288,-0.01464118,-0.99988752
1314272619.80477810,0.00325398,-0.01483634,-0.99988464
1314272619.85359740,0.00331364,-0.01483724,-0.99988443
1314272619.90180659,0.00334017,-0.01499060,-0.99988206
1314272619.94143605,0.00341276,-0.01509207,-0.99988028
1314272620.00147653,0.00352600,-0.01515254,-0.99987898
1314272620.05259037,0.00358081,-0.01542320,-0.99987464
1314272620.10173535,0.00381408,-0.01533689,-0.99987511
1314272620.15248513,0.00366642,-0.01536424,-0.99987524
1314272620.20152497,0.00367929,-0.01538758,-0.99987483
1314272620.25247121,0.00378015,-0.01534714,-0.99987508
1314272620.30163765,0.00372179,-0.01517687,-0.99987790
1314272620.35324025,0.00372953,-0.01502616,-0.99988015
1314272620.40450287,0.00399403,-0.01516480,-0.99987703
1314272620.45251083,0.00400008,-0.01508584,-0.99987820
1314272620.50160217,0.00404433,-0.01486793,-0.99988129
1314272620.55253100,0.00419378,-0.01509526,-0.99987727
1314272620.60051513,0.00402258,-0.01489202,-0.99988102
1314272620.65347791,0.00412757,-0.01521191,-0.99987577
1314272620.70135021,0.00411225,-0.01496313,-0.99987959
1314272620.75251794,0.00403809,-0.01474676,-0.99988311
1314272620.80048299,0.00407455,-0.01479727,-0.99988221
1314272620.85248232,0.00438259,-0.01480602,-0.99988078
1314272620.90145874,0.00428890,-0.01454123,-0.99988507
1314272620.95245600,0.00434287,-0.01458164,-0.99988425
1314272621.00125670,0.00451410,-0.01450288,-0.99988464
1314272621.05244446,0.00463425,-0.01463909,-0.99988210
1314272621.10092306,0.00475137,-0.01446524,-0.99988408
1314272621.15257859,0.00481580,-0.01456408,-0.99988234
1314272621.20050430,0.00488271,-0.01452856,-0.99988253
1314272621.25321817,0.00477923,-0.01471472,-0.99988031
1314272621.30176902,0.00513353,-0.01479908,-0.99987731
1314272621.35245752,0.00527243,-0.01502591,-0.99987320
1314272621.40559959,0.00556834,-0.01525894,-0.99986807
1314272621.45652914,0.00572686,-0.01525242,-0.99986727
1314272621.50546622,0.00573210,-0.01539955,-0.99986499
1314272621.55360770,0.00577014,-0.01517127,-0.99986826
1314272621.60450578,0.00602246,-0.01509708,-0.99986790
1314272621.65259075,0.00611601,-0.01512770,-0.99986686
1314272621.70218515,0.00590429,-0.01502039,-0.99986976
1314272621.75360608,0.00584668,-0.01511268,-0.99986870
1314272621.80462313,0.00573028,-0.01482638,-0.99987366
1314272621.85574794,0.00578026,-0.01496069,-0.99987137
1314272621.90451765,0.00563197,-0.01495246,-0.99987234
1314272621.94555497,0.00587915,-0.01487225,-0.99987212
1314272622.00159049,0.00587784,-0.01501733,-0.99986996
1314272622.05247140,0.00546773,-0.01489023,-0.99987418
1314272622.10156441,0.00555936,-0.01518173,-0.99986930
1314272622.15247750,0.00569562,-0.01534405,-0.99986605
1314272622.20450473,0.00556311,-0.01541183,-0.99986575
1314272622.25261402,0.00547543,-0.01550971,-0.99986473
1314272622.30170631,0.00541554,-0.01545509,-0.99986590
1314272622.35245252,0.00542926,-0.01552174,-0.99986479
1314272622.40546203,0.00561361,-0.01547278,-0.99986453
1314272622.45347142,0.00570555,-0.01570914,-0.99986033
1314272622.50153589,0.00568268,-0.01550413,-0.99986366
1314272622.55246186,0.00562399,-0.01530342,-0.99986708
1314272622.60145283,0.00570490,-0.01523074,-0.99986773
1314272622.65115643,0.00574891,-0.01527143,-0.99986686
1314272622.69346690,0.00580950,-0.01529786,-0.99986610
1314272622.75244761,0.00591912,-0.01560190,-0.99986076
1314272622.80452061,0.00593576,-0.01561870,-0.99986040
1314272622.85348344,0.00600837,-0.01555332,-0.99986099
1314272622.90154409,0.00582186,-0.01538256,-0.99986473
1314272622.95247436,0.00592689,-0.01545427,-0.99986301
1314272623.00568581,0.00604825,-0.01530825,-0.99986453
1314272623.05246258,0.00590504,-0.01553148,-0.99986194
1314272623.10169625,0.00559138,-0.01541565,-0.99986554
1314272623.15260220,0.00514123,-0.01546111,-0.99986725
1314272623.20454955,0.00489114,-0.01546479,-0.99986845
1314272623.25246716,0.00505962,-0.01546841,-0.99986756
1314272623.30163360,0.00504103,-0.01561926,-0.99986530
1314272623.35246944,0.00513717,-0.01571482,-0.99986332
1314272623.40564346,0.00522905,-0.01552224,-0.99986585
1314272623.45363712,0.00540689,-0.01573175,-0.99986163
1314272623.50061488,0.00534464,-0.01563990,-0.99986340
1314272623.55359364,0.00528383,-0.01544930,-0.99986669
1314272623.60063481,0.00535524,-0.01529807,-0.99986864
1314272623.65353560,0.00542173,-0.01518148,-0.99987006
1314272623.69751453,0.00540510,-0.01504269,-0.99987224
1314272623.75351739,0.00547130,-0.01500410,-0.99987246
1314272623.80150127,0.00570918,-0.01511174,-0.99986951
1314272623.85596585,0.00586760,-0.01544530,-0.99986350
1314272623.90126991,0.00569052,-0.01538401,-0.99986547
1314272623.94451475,0.00562397,-0.01549693,-0.99986410
1314272624.00044703,0.00561585,-0.01552912,-0.99986365
1314272624.05352736,0.00547473,-0.01577467,-0.99986058
1314272624.10202956,0.00539235,-0.01575725,-0.99986131
1314272624.15244079,0.00521875,-0.01580191,-0.99986152
1314272624.20049644,0.00501989,-0.01586151,-0.99986160
1314272624.25246263,0.00496880,-0.01569554,-0.99986447
1314272624.30149388,0.00516047,-0.01572510,-0.99986304
1314272624.35265708,0.00510062,-0.01589735,-0.99986062
1314272624.40450621,0.00528525,-0.01581962,-0.99986089
1314272624.45352674,0.00544224,-0.01598992,-0.99985734
1314272624.50162816,0.00545296,-0.01594288,-0.99985803
1314272624.55362248,0.00545977,-0.01611399,-0.99985525
1314272624.60561204,0.00529629,-0.01605457,-0.99985709
1314272624.65421891,0.00531706,-0.01631699,-0.99985273
1314272624.69361806,0.00556379,-0.01617976,-0.99985362
1314272624.75361109,0.00536920,-0.01647790,-0.99984981
1314272624.80447412,0.00551600,-0.01646704,-0.99984919
1314272624.85360241,0.00549081,-0.01646918,-0.99984930
1314272624.90211105,0.00554153,-0.01623543,-0.99985284
1314272624.95349240,0.00574706,-0.01635398,-0.99984975
1314272625.00160551,0.00566055,-0.01632327,-0.99985074
1314272625.05249333,0.00555142,-0.01632800,-0.99985128
1314272625.10446811,0.00548106,-0.01651251,-0.99984864
1314272625.15349245,0.00557541,-0.01662728,-0.99984621
1314272625.20451736,0.00540551,-0.01672551,-0.99984551
1314272625.25249052,0.00537101,-0.01666220,-0.99984675
1314272625.30193925,0.00535770,-0.01673787,-0.99984556
1314272625.35250831,0.00536833,-0.01711185,-0.99983917
1314272625.40161848,0.00532002,-0.01733780,-0.99983554
1314272625.44180822,0.00523378,-0.01738982,-0.99983509
1314272625.50604057,0.00518031,-0.01734867,-0.99983608
1314272625.55354643,0.00506261,-0.01733600,-0.99983690
1314272625.60446405,0.00522690,-0.01741044,-0.99983476
1314272625.65361309,0.00527836,-0.01726094,-0.99983709
1314272625.69347453,0.00554654,-0.01726717,-0.99983553
1314272625.75248933,0.00553482,-0.01732225,-0.99983464
1314272625.80159640,0.00546895,-0.01743368,-0.99983306
1314272625.85162520,0.00521998,-0.01744705,-0.99983416
1314272625.90560770,0.00509191,-0.01749431,-0.99983400
1314272625.94551492,0.00494913,-0.01738464,-0.99983663
1314272626.00449157,0.00500922,-0.01754427,-0.99983354
1314272626.05350900,0.00506923,-0.01750994,-0.99983384
1314272626.10162568,0.00519770,-0.01740886,-0.99983494
1314272626.15247631,0.00502533,-0.01756842,-0.99983303
1314272626.20562506,0.00508525,-0.01749618,-0.99983400
1314272626.25246096,0.00517124,-0.01757149,-0.99983224
1314272626.30449128,0.00428686,-0.01381600,-0.99989537
1314272626.35248542,0.00419955,-0.01392136,-0.99989427
1314272626.40449572,0.00437945,-0.01404462,-0.99989178
1314272626.44459009,0.00452350,-0.01420253,-0.99988891
1314272626.50151229,0.00450215,-0.01429281,-0.99988772
1314272626.55247593,0.00612907,-0.01398469,-0.99988342
1314272626.60149050,0.00621419,-0.01392838,-0.99988369
1314272626.65610099,0.00612480,-0.01393143,-0.99988419
1314272626.69360161,0.00599451,-0.01403074,-0.99988360
1314272626.75351214,0.00612929,-0.01400114,-0.99988319
1314272626.80047131,0.00700940,-0.01411829,-0.99987576
1314272626.85359454,0.00687469,-0.01425460,-0.99987476
1314272626.90153670,0.00683507,-0.01425317,-0.99987506
1314272626.95244670,0.00668517,-0.01446815,-0.99987298
1314272627.00085402,0.00676401,-0.01450013,-0.99987199
1314272627.05259681,0.00578649,-0.01478136,-0.99987401
1314272627.10155916,0.00590810,-0.01487858,-0.99987185
1314272627.15351963,0.00612932,-0.01460237,-0.99987459
1314272627.20454383,0.00569362,-0.01446420,-0.99987918
1314272627.25346231,0.00567256,-0.01442576,-0.99987985
1314272627.30234671,0.00547942,-0.01514281,-0.99987033
1314272627.35361266,0.00539141,-0.01528017,-0.99986872
1314272627.40151668,0.00567274,-0.01516725,-0.99986888
1314272627.44222355,0.00570448,-0.01500551,-0.99987114
1314272627.50146222,0.00576124,-0.01485155,-0.99987311
1314272627.55421972,0.00650912,-0.01518304,-0.99986354
1314272627.60460854,0.00662018,-0.01516689,-0.99986306
1314272627.65424156,0.00685455,-0.01513935,-0.99986190
1314272627.69748688,0.00683740,-0.01522188,-0.99986076
1314272627.75246549,0.00691178,-0.01538034,-0.99985783
1314272627.80546737,0.00607203,-0.01553543,-0.99986088
1314272627.85442209,0.00595910,-0.01562491,-0.99986017
1314272627.90145636,0.00630100,-0.01535290,-0.99986228
1314272627.94153166,0.00641462,-0.01529757,-0.99986241
1314272628.00460768,0.00619365,-0.01520598,-0.99986520
1314272628.05350280,0.00702881,-0.01557235,-0.99985404
1314272628.10160208,0.00706353,-0.01569605,-0.99985186
1314272628.15246725,0.00726770,-0.01575572,-0.99984946
1314272628.20554161,0.00732944,-0.01599056,-0.99984528
1314272628.25483799,0.00710445,-0.01579099,-0.99985007
1314272628.30160356,0.00708798,-0.01602820,-0.99984642
1314272628.35361266,0.00715036,-0.01617657,-0.99984358
1314272628.40448260,0.00735498,-0.01618500,-0.99984196
1314272628.44561481,0.00737604,-0.01630323,-0.99983989
1314272628.50174928,0.00737055,-0.01623844,-0.99984098
1314272628.55259633,0.00689550,-0.01622677,-0.99984456
1314272628.60151625,0.00707287,-0.01612709,-0.99984493
1314272628.65135884,0.00695981,-0.01641705,-0.99984101
1314272628.70149517,0.00719478,-0.01632632,-0.99984083
1314272628.75251317,0.00726743,-0.01637748,-0.99983947
1314272628.80448556,0.00672844,-0.01611741,-0.99984747
1314272628.85356164,0.00698428,-0.01613766,-0.99984539
1314272628.90181899,0.00704836,-0.01626435,-0.99984288
1314272628.95264435,0.00702754,-0.01617356,-0.99984450
1314272629.00087738,0.00695948,-0.01593368,-0.99984883
1314272629.05303073,0.00735062,-0.01498665,-0.99986067
1314272629.10086560,0.00742783,-0.01499995,-0.99985990
1314272629.15303826,0.00735580,-0.01508412,-0.99985917
1314272629.20463109,0.00732641,-0.01507081,-0.99985959
1314272629.25288272,0.00533376,-0.01470637,-0.99987763
1314272629.30167413,0.00513732,-0.01476550,-0.99987779
1314272629.35248137,0.00514311,-0.01481040,-0.99987709
1314272629.40452170,0.00486944,-0.01475655,-0.99987926
1314272629.45376015,0.00475911,-0.01499914,-0.99987618
1314272629.50150537,0.00487255,-0.01493258,-0.99987663
1314272629.55365348,0.00230037,-0.01381131,-0.99990197
1314272629.60446715,0.00268277,-0.01365066,-0.99990323
1314272629.65248513,0.00268584,-0.01394051,-0.99989922
1314272629.70153713,0.00284883,-0.01376946,-0.99990114
1314272629.75284863,0.00145173,-0.01196873,-0.99992732
1314272629.80109644,0.00149383,-0.01219459,-0.99992453
1314272629.85477519,0.00134374,-0.01241691,-0.99992200
1314272629.90070724,0.00119735,-0.01253106,-0.99992077
1314272629.94098949,0.00104013,-0.01263516,-0.99991963
1314272630.00450444,0.00117436,-0.01259145,-0.99992003
1314272630.05249238,-0.00000426,-0.01036113,-0.99994632
1314272630.10172653,-0.00012096,-0.01015174,-0.99994846
1314272630.15353274,-0.00028955,-0.01031113,-0.99994680
1314272630.20450449,-0.00037344,-0.01023349,-0.99994757
1314272630.25458694,0.00070204,-0.00911748,-0.99995819
1314272630.30450606,0.00051163,-0.00910482,-0.99995842
1314272630.35361934,0.00066895,-0.00944602,-0.99995516
1314272630.40446568,0.00084953,-0.00945541,-0.99995494
1314272630.45360947,0.00088541,-0.00951143,-0.99995437
1314272630.50180531,0.00067693,-0.00956848,-0.99995399
1314272630.55247235,0.00101335,-0.00880792,-0.99996070
1314272630.60571885,0.00099901,-0.00897603,-0.99995922
1314272630.65132308,0.00110056,-0.00910075,-0.99995798
1314272630.70458794,0.00096999,-0.00905464,-0.99995854
1314272630.75265551,0.00104241,-0.00900755,-0.99995889
1314272630.80448508,0.00114377,-0.00887018,-0.99996001
1314272630.85359049,0.00151258,-0.00889075,-0.99995933
1314272630.90211678,0.00151266,-0.00890011,-0.99995925
1314272630.95351839,0.00134581,-0.00889224,-0.99995956
1314272631.00560045,0.00140503,-0.00927853,-0.99995597
1314272631.05246425,0.00129285,-0.00868143,-0.99996148
1314272631.10214472,0.00125893,-0.00886733,-0.99995989
1314272631.15365791,0.00135666,-0.00886925,-0.99995975
1314272631.20452619,0.00124265,-0.00911569,-0.99995768
1314272631.25263953,0.00034911,-0.00826595,-0.99996578
1314272631.30198479,0.00035470,-0.00819536,-0.99996635
1314272631.34447598,0.00065038,-0.00810170,-0.99996697
1314272631.40145183,0.00060280,-0.00798569,-0.99996793
1314272631.45426440,0.00074998,-0.00808194,-0.99996706
1314272631.50150251,0.00074910,-0.00789610,-0.99996854
1314272631.55247283,0.00157918,-0.00633608,-0.99997868
1314272631.60447836,0.00161354,-0.00663569,-0.99997668
1314272631.65359902,0.00175640,-0.00647110,-0.99997752
1314272631.70155311,0.00175848,-0.00654988,-0.99997700
1314272631.75421953,0.00171523,-0.00664796,-0.99997643
1314272631.80132389,0.00276035,-0.00532052,-0.99998204
1314272631.85427666,0.00271729,-0.00552070,-0.99998107
1314272631.90104795,0.00244168,-0.00562969,-0.99998117
1314272631.94142056,0.00228107,-0.00593990,-0.99997976
1314272632.00445032,0.00216373,-0.00596545,-0.99997987
1314272632.05281591,0.00284971,-0.00579367,-0.99997916
1314272632.10170484,0.00273154,-0.00582382,-0.99997931
1314272632.15252113,0.00245897,-0.00589684,-0.99997959
1314272632.20138955,0.00273237,-0.00602808,-0.99997810
1314272632.25094414,0.00395020,-0.00693807,-0.99996813
1314272632.30124736,0.00390555,-0.00685797,-0.99996886
1314272632.35350299,0.00388544,-0.00695629,-0.99996826
1314272632.40154743,0.00374222,-0.00702018,-0.99996836
1314272632.45350385,0.00354869,-0.00716914,-0.99996800
1314272632.50157499,0.00368086,-0.00696132,-0.99996900
1314272632.55246496,0.00360385,-0.00760120,-0.99996462
1314272632.60553145,0.00374402,-0.00735285,-0.99996596
1314272632.65410089,0.00370262,-0.00743182,-0.99996553
1314272632.70469832,0.00376877,-0.00733603,-0.99996599
1314272632.75347447,0.00380094,-0.00787452,-0.99996177
1314272632.80047894,0.00397360,-0.00798684,-0.99996021
1314272632.85346341,0.00410646,-0.00792933,-0.99996013
1314272632.90170550,0.00393432,-0.00795137,-0.99996065
1314272632.95346236,0.00396016,-0.00775338,-0.99996210
1314272633.00048137,0.00393659,-0.00751064,-0.99996405
1314272633.05246377,0.00348743,-0.00833683,-0.99995917
1314272633.10157442,0.00357346,-0.00827490,-0.99995938
1314272633.15251040,0.00353226,-0.00844722,-0.99995808
1314272633.20462608,0.00351088,-0.00857097,-0.99995711
1314272633.25249267,0.00461692,-0.00909341,-0.99994800
1314272633.30207157,0.00467631,-0.00904025,-0.99994820
1314272633.35247612,0.00476801,-0.00888239,-0.99994918
1314272633.40161824,0.00489158,-0.00878340,-0.99994946
1314272633.45229650,0.00493419,-0.00884842,-0.99994868
1314272633.50560474,0.00505652,-0.00847932,-0.99995127
1314272633.55259919,0.00603266,-0.00841729,-0.99994638
1314272633.60857821,0.00615192,-0.00855355,-0.99994449
1314272633.65252948,0.00593443,-0.00851912,-0.99994610
1314272633.70443058,0.00592867,-0.00843135,-0.99994688
